• Em Portugal
  • Lista de países
  • Para 7 dias
  • Temperatura da água
  • Mapas de satélite
  • Mapa do tempo
  • Widgets de tempo
  • user-avatar
    Iniciar Sessão

    Previsão horária em Killarney

    Hoje, 13 Novembro, Terça-feira

    Tempo Temperatura Precipitação Vento Pressão Humidade
    00:00 +7°C° 0 mm 5 m/s 754 mmHg 92%
    01:00 +7°C° 0 mm 5 m/s 755 mmHg 92%
    02:00 +7°C° 0 mm 5 m/s 755 mmHg 92%
    03:00 +6°C° 0 mm 4 m/s 755 mmHg 92%
    04:00 +6°C° 0 mm 4 m/s 756 mmHg 92%
    05:00 +6°C° 0 mm 4 m/s 756 mmHg 92%
    06:00 +7°C° 0 mm 4 m/s 756 mmHg 92%
    07:00 +7°C° 0 mm 5 m/s 757 mmHg 92%
    08:00 +7°C° 0 mm 5 m/s 757 mmHg 93%
    09:00 +8°C° 0 mm 6 m/s 757 mmHg 88%
    10:00 +10°C° 0 mm 7 m/s 757 mmHg 84%
    11:00 +11°C° 0 mm 7 m/s 757 mmHg 80%
    12:00 +11°C° 0 mm 8 m/s 756 mmHg 82%
    13:00 +11°C° 0 mm 8 m/s 755 mmHg 84%
    14:00 +11°C° 0 mm 9 m/s 755 mmHg 86%
    15:00 +11°C° 1 mm 10 m/s 754 mmHg 88%
    16:00 +11°C° 1 mm 11 m/s 753 mmHg 89%
    17:00 +10°C° 1 mm 12 m/s 752 mmHg 91%
    18:00 +11°C° 1.3 mm 11 m/s 752 mmHg 91%
    19:00 +12°C° 1.3 mm 10 m/s 752 mmHg 92%
    20:00 +12°C° 1.3 mm 9 m/s 751 mmHg 93%
    21:00 +13°C° 1 mm 9 m/s 751 mmHg 93%
    22:00 +13°C° 1 mm 9 m/s 751 mmHg 94%
    23:00 +13°C° 1 mm 10 m/s 751 mmHg 94%

    Amanhã, 14 Novembro, Quarta-feira

    Tempo Temperatura Precipitação Vento Pressão Humidade
    00:00 +13°C° 0.1 mm 10 m/s 751 mmHg 93%
    01:00 +13°C° 0.1 mm 10 m/s 751 mmHg 93%
    02:00 +13°C° 0.1 mm 10 m/s 751 mmHg 92%
    03:00 +13°C° 0.4 mm 10 m/s 751 mmHg 92%
    04:00 +13°C° 0.4 mm 11 m/s 750 mmHg 91%
    05:00 +13°C° 0.4 mm 11 m/s 750 mmHg 91%
    06:00 +13°C° 1 mm 11 m/s 750 mmHg 91%
    07:00 +13°C° 1 mm 11 m/s 751 mmHg 91%
    08:00 +13°C° 1 mm 11 m/s 751 mmHg 92%
    09:00 +13°C° 0.3 mm 11 m/s 751 mmHg 92%
    10:00 +13°C° 0.3 mm 10 m/s 751 mmHg 92%
    11:00 +13°C° 0.3 mm 10 m/s 752 mmHg 92%
    12:00 +13°C° 0.2 mm 10 m/s 752 mmHg 92%
    13:00 +13°C° 0.2 mm 10 m/s 752 mmHg 92%
    14:00 +13°C° 0.2 mm 10 m/s 752 mmHg 92%
    15:00 +13°C° 0.2 mm 9 m/s 752 mmHg 92%
    16:00 +12°C° 0.2 mm 9 m/s 752 mmHg 92%
    17:00 +12°C° 0.2 mm 9 m/s 752 mmHg 93%
    18:00 +12°C° 0.1 mm 9 m/s 752 mmHg 92%
    19:00 +12°C° 0.1 mm 9 m/s 751 mmHg 92%
    20:00 +12°C° 0.1 mm 9 m/s 751 mmHg 91%
    21:00 +12°C° 0.1 mm 9 m/s 751 mmHg 90%
    22:00 +11°C° 0.1 mm 9 m/s 751 mmHg 89%
    23:00 +11°C° 0.1 mm 9 m/s 751 mmHg 88%

    Depois de amanhã, 15 Novembro, Quinta-feira

    Tempo Temperatura Precipitação Vento Pressão Humidade
    00:00 +11°C° 0.2 mm 9 m/s 752 mmHg 89%
    01:00 +11°C° 0.2 mm 8 m/s 752 mmHg 90%
    02:00 +11°C° 0.2 mm 7 m/s 752 mmHg 90%
    03:00 +11°C° 0.7 mm 7 m/s 752 mmHg 91%
    04:00 +11°C° 0.7 mm 7 m/s 752 mmHg 92%
    05:00 +11°C° 0.7 mm 6 m/s 752 mmHg 93%
    06:00 +12°C° 0.4 mm 7 m/s 752 mmHg 93%
    07:00 +12°C° 0.4 mm 7 m/s 752 mmHg 93%
    08:00 +12°C° 0.4 mm 7 m/s 752 mmHg 93%
    09:00 +12°C° 0.4 mm 7 m/s 752 mmHg 92%
    10:00 +12°C° 0.4 mm 7 m/s 753 mmHg 91%
    11:00 +12°C° 0.4 mm 7 m/s 753 mmHg 91%
    12:00 +11°C° 0.1 mm 7 m/s 753 mmHg 88%
    13:00 +11°C° 0.1 mm 6 m/s 754 mmHg 86%
    14:00 +11°C° 0.1 mm 6 m/s 754 mmHg 84%
    15:00 +10°C° 0 mm 5 m/s 755 mmHg 86%
    16:00 +9°C° 0 mm 5 m/s 755 mmHg 88%
    17:00 +8°C° 0 mm 4 m/s 756 mmHg 90%
    18:00 +7°C° 0 mm 4 m/s 756 mmHg 90%
    19:00 +7°C° 0 mm 4 m/s 757 mmHg 90%
    20:00 +7°C° 0 mm 4 m/s 757 mmHg 90%
    21:00 +6°C° 0 mm 4 m/s 757 mmHg 90%
    22:00 +6°C° 0 mm 4 m/s 757 mmHg 90%
    23:00 +6°C° 0 mm 4 m/s 758 mmHg 91%

    16 Novembro, Sexta-feira

    Tempo Temperatura Precipitação Vento Pressão Humidade
    00:00 +6°C° 0 mm 5 m/s 758 mmHg 91%
    01:00 +7°C° 0 mm 5 m/s 757 mmHg 92%
    02:00 +7°C° 0 mm 5 m/s 757 mmHg 92%
    03:00 +7°C° 0 mm 6 m/s 757 mmHg 93%
    04:00 +8°C° 0 mm 6 m/s 757 mmHg 94%
    05:00 +9°C° 0 mm 6 m/s 757 mmHg 95%
    06:00 +10°C° 0 mm 7 m/s 756 mmHg 94%
    07:00 +11°C° 0 mm 8 m/s 756 mmHg 93%
    08:00 +12°C° 0 mm 9 m/s 756 mmHg 92%
    09:00 +13°C° 0 mm 9 m/s 756 mmHg 88%
    10:00 +13°C° 0 mm 9 m/s 756 mmHg 84%
    11:00 +14°C° 0 mm 10 m/s 756 mmHg 80%
    12:00 +15°C° 0 mm 9 m/s 756 mmHg 81%
    13:00 +15°C° 0 mm 9 m/s 756 mmHg 81%
    14:00 +15°C° 0 mm 8 m/s 756 mmHg 81%
    15:00 +13°C° 0 mm 8 m/s 756 mmHg 85%
    16:00 +12°C° 0 mm 8 m/s 756 mmHg 89%
    17:00 +12°C° 0 mm 8 m/s 756 mmHg 93%
    18:00 +12°C° 0 mm 8 m/s 756 mmHg 92%
    19:00 +12°C° 0 mm 8 m/s 756 mmHg 92%
    20:00 +12°C° 0 mm 8 m/s 757 mmHg 92%
    21:00 +12°C° 0 mm 8 m/s 757 mmHg 92%
    22:00 +12°C° 0 mm 8 m/s 757 mmHg 92%
    23:00 +12°C° 0 mm 8 m/s 756 mmHg 92%

    17 Novembro, Sábado

    Tempo Temperatura Precipitação Vento Pressão Humidade
    00:00 +12°C° 0 mm 8 m/s 756 mmHg 92%
    01:00 +12°C° 0 mm 8 m/s 756 mmHg 91%
    02:00 +12°C° 0 mm 8 m/s 756 mmHg 91%
    03:00 +12°C° 0 mm 8 m/s 757 mmHg 92%
    04:00 +12°C° 0 mm 8 m/s 757 mmHg 92%
    05:00 +12°C° 0 mm 8 m/s 757 mmHg 92%
    06:00 +12°C° 0 mm 8 m/s 757 mmHg 92%
    07:00 +12°C° 0 mm 8 m/s 758 mmHg 92%
    08:00 +12°C° 0 mm 8 m/s 758 mmHg 92%
    09:00 +12°C° 0 mm 8 m/s 758 mmHg 91%
    10:00 +13°C° 0 mm 8 m/s 759 mmHg 90%
    11:00 +13°C° 0 mm 8 m/s 759 mmHg 89%
    12:00 +13°C° 0 mm 8 m/s 759 mmHg 89%
    13:00 +14°C° 0 mm 7 m/s 759 mmHg 89%
    14:00 +14°C° 0 mm 7 m/s 759 mmHg 89%
    15:00 +12°C° 0 mm 7 m/s 759 mmHg 90%
    16:00 +12°C° 0 mm 7 m/s 759 mmHg 90%
    17:00 +12°C° 0 mm 7 m/s 759 mmHg 91%
    18:00 +12°C° 0 mm 7 m/s 759 mmHg 91%
    19:00 +12°C° 0 mm 7 m/s 760 mmHg 91%
    20:00 +12°C° 0 mm 7 m/s 760 mmHg 91%
    21:00 +11°C° 0 mm 7 m/s 760 mmHg 91%
    22:00 +11°C° 0 mm 6 m/s 760 mmHg 91%
    23:00 +11°C° 0 mm 6 m/s 760 mmHg 91%

    18 Novembro, Domingo

    Tempo Temperatura Precipitação Vento Pressão Humidade
    00:00 +11°C° 0 mm 6 m/s 760 mmHg 91%
    01:00 +11°C° 0 mm 6 m/s 760 mmHg 91%
    02:00 +11°C° 0 mm 6 m/s 760 mmHg 91%
    03:00 +10°C° 0 mm 6 m/s 760 mmHg 92%
    04:00 +10°C° 0 mm 6 m/s 760 mmHg 92%
    05:00 +10°C° 0 mm 6 m/s 760 mmHg 92%
    06:00 +9°C° 0 mm 6 m/s 760 mmHg 92%
    07:00 +9°C° 0 mm 6 m/s 761 mmHg 92%
    08:00 +9°C° 0 mm 6 m/s 761 mmHg 92%
    09:00 +9°C° 0 mm 6 m/s 761 mmHg 89%
    10:00 +10°C° 0 mm 6 m/s 761 mmHg 85%
    11:00 +10°C° 0 mm 6 m/s 761 mmHg 81%
    12:00 +10°C° 0 mm 6 m/s 761 mmHg 81%
    13:00 +10°C° 0 mm 6 m/s 761 mmHg 80%
    14:00 +10°C° 0 mm 6 m/s 761 mmHg 79%
    15:00 +9°C° 0 mm 6 m/s 761 mmHg 82%
    16:00 +8°C° 0 mm 6 m/s 761 mmHg 85%
    17:00 +7°C° 0 mm 5 m/s 761 mmHg 87%
    18:00 +7°C° 0 mm 5 m/s 761 mmHg 88%
    19:00 +6°C° 0 mm 5 m/s 761 mmHg 88%
    20:00 +6°C° 0 mm 5 m/s 761 mmHg 89%
    21:00 +6°C° 0 mm 5 m/s 761 mmHg 89%
    22:00 +6°C° 0 mm 5 m/s 761 mmHg 88%
    23:00 +6°C° 0 mm 5 m/s 761 mmHg 88%
    Mostrar mais